UAE49 LGAV-EDDM

Flight info

Callsign UAE49
Flight time 2h 8m
Altitude 38000
Route KOR UL613 XANIS DCT DIMIS DCT PETAK DCT GLOMY DCT ELTIB DCT GORPA DCT BERTA DCT RASTA DCT REDBU Q112 NAPSA NAPSA1B
Aircraft A388/J-SADE2E3FGHIJ3J4J5M1RWXY/LB1D1

Departure

Time 2026-05-04 15:21
Airport Athens Eleftherios Venizelos International Airport (LGAV)

Arrival

Time 2026-05-04 17:29
Airport Munich Airport (EDDM)
Time Latitude Longitude Altitude Speed Heading
2026-05-04 14:19 37.92956 23.94054 306 ft 0 kts 217°
2026-05-04 15:11 37.92960 23.94057 306 ft 3 kts 217°
2026-05-04 15:11 37.92978 23.94076 306 ft 3 kts 218°
2026-05-04 15:12 37.92992 23.94089 308 ft 3 kts 211°
2026-05-04 15:12 37.93011 23.94099 307 ft 3 kts 189°
2026-05-04 15:12 37.93028 23.94099 305 ft 3 kts 160°
2026-05-04 15:12 37.93043 23.94087 307 ft 3 kts 132°
2026-05-04 15:13 37.93048 23.94079 306 ft 0 kts 127°
2026-05-04 15:17 37.92966 23.94216 310 ft 14 kts 127°
2026-05-04 15:17 37.92904 23.94320 309 ft 13 kts 127°
2026-05-04 15:18 37.92853 23.94407 311 ft 12 kts 127°
2026-05-04 15:18 37.92800 23.94455 310 ft 8 kts 181°
2026-05-04 15:18 37.92744 23.94425 309 ft 10 kts 218°
2026-05-04 15:19 37.92574 23.94261 311 ft 19 kts 217°
2026-05-04 15:19 37.92489 23.94179 311 ft 14 kts 217°
2026-05-04 15:19 37.92412 23.94270 311 ft 14 kts 90°
2026-05-04 15:20 37.92435 23.94397 316 ft 17 kts 50°
2026-05-04 15:20 37.92637 23.94594 312 ft 79 kts 37°
2026-05-04 15:20 37.93301 23.95230 298 ft 152 kts 36°
2026-05-04 15:20 37.94248 23.96094 576 ft 174 kts 40°
2026-05-04 15:21 37.95209 23.97027 1174 ft 173 kts 39°
2026-05-04 15:21 37.96136 23.97982 1826 ft 172 kts 36°
2026-05-04 15:21 37.97995 24.00013 2858 ft 184 kts 35°
2026-05-04 15:22 37.99038 24.01044 3286 ft 204 kts 31°
2026-05-04 15:22 38.00272 24.02107 3907 ft 224 kts 30°
2026-05-04 15:22 38.03460 24.02647 5333 ft 249 kts 345°
2026-05-04 15:23 38.05145 24.02114 6410 ft 250 kts 339°
2026-05-04 15:23 38.06619 24.00964 7415 ft 253 kts 314°
2026-05-04 15:23 38.07516 23.99004 8347 ft 265 kts 288°
2026-05-04 15:23 38.07743 23.96645 9290 ft 275 kts 275°
2026-05-04 15:24 38.07760 23.91612 10741 ft 302 kts 274°
2026-05-04 15:24 38.07901 23.85888 11547 ft 340 kts 275°
2026-05-04 15:25 38.08008 23.82866 12345 ft 346 kts 276°
2026-05-04 15:25 38.08127 23.79827 13079 ft 352 kts 276°
2026-05-04 15:25 38.08253 23.76658 13830 ft 359 kts 276°
2026-05-04 15:26 38.08503 23.70282 15238 ft 368 kts 276°
2026-05-04 15:26 38.08627 23.67031 15978 ft 371 kts 275°
2026-05-04 15:26 38.08873 23.60418 17412 ft 379 kts 275°
2026-05-04 15:27 38.08999 23.57048 18020 ft 385 kts 275°
2026-05-04 15:27 38.09252 23.50200 19248 ft 393 kts 275°
2026-05-04 15:28 38.09505 23.43241 20539 ft 396 kts 274°
2026-05-04 15:28 38.09629 23.39749 21285 ft 395 kts 275°
2026-05-04 15:28 38.09878 23.32731 22484 ft 401 kts 275°
2026-05-04 15:29 38.10003 23.29183 23097 ft 403 kts 275°
2026-05-04 15:30 38.10489 23.14919 24387 ft 404 kts 277°
2026-05-04 15:30 38.10836 23.04301 26320 ft 398 kts 279°
2026-05-04 15:31 38.11071 22.97210 27420 ft 404 kts 279°
2026-05-04 15:31 38.11187 22.93622 28004 ft 407 kts 279°
2026-05-04 15:32 38.11528 22.82781 29826 ft 416 kts 279°
2026-05-04 15:32 38.12069 22.75481 30960 ft 409 kts 292°
2026-05-04 15:33 38.14685 22.69271 31964 ft 401 kts 315°
2026-05-04 15:34 38.21117 22.62309 33413 ft 409 kts 322°
2026-05-04 15:34 38.23315 22.59988 33891 ft 413 kts 322°
2026-05-04 15:34 38.27800 22.55257 34610 ft 423 kts 322°
2026-05-04 15:35 38.32372 22.50433 35462 ft 429 kts 321°
2026-05-04 15:35 38.34677 22.47999 35929 ft 431 kts 321°
2026-05-04 15:35 38.36986 22.45558 36377 ft 432 kts 321°
2026-05-04 15:36 38.41618 22.40653 37305 ft 436 kts 321°
2026-05-04 15:36 38.43955 22.38176 37759 ft 438 kts 321°
2026-05-04 15:36 38.46309 22.35678 38084 ft 443 kts 321°
2026-05-04 15:37 38.51039 22.30653 38111 ft 440 kts 321°
2026-05-04 15:37 38.55755 22.25634 38109 ft 441 kts 321°
2026-05-04 15:38 38.60475 22.20601 38111 ft 442 kts 321°
2026-05-04 15:38 38.65174 22.15582 38104 ft 440 kts 321°
2026-05-04 15:39 38.69882 22.10544 38145 ft 443 kts 321°
2026-05-04 15:40 38.77012 22.02902 38163 ft 447 kts 321°
2026-05-04 15:40 38.81791 21.97765 38154 ft 448 kts 321°
2026-05-04 15:41 38.86561 21.92629 38144 ft 448 kts 321°
2026-05-04 15:41 38.91325 21.87490 38141 ft 447 kts 321°
2026-05-04 15:42 38.96079 21.82354 38135 ft 446 kts 321°
2026-05-04 15:42 39.00833 21.77208 38107 ft 446 kts 320°
2026-05-04 15:43 39.05588 21.72051 38120 ft 447 kts 320°
2026-05-04 15:43 39.10347 21.66879 38118 ft 448 kts 321°
2026-05-04 15:44 39.15074 21.61735 38123 ft 448 kts 321°
2026-05-04 15:44 39.19842 21.56534 38125 ft 449 kts 321°
2026-05-04 15:45 39.24604 21.51332 38125 ft 449 kts 320°
2026-05-04 15:45 39.29370 21.46116 38126 ft 448 kts 320°
2026-05-04 15:46 39.34124 21.40903 38136 ft 448 kts 321°
2026-05-04 15:46 39.38869 21.35690 38131 ft 447 kts 321°
2026-05-04 15:47 39.43576 21.30511 38127 ft 446 kts 320°
2026-05-04 15:47 39.48298 21.25304 38135 ft 446 kts 320°
2026-05-04 15:48 39.53015 21.20094 38133 ft 445 kts 320°
2026-05-04 15:48 39.60077 21.12275 38122 ft 445 kts 320°
2026-05-04 15:49 39.64017 21.07903 38090 ft 445 kts 320°
2026-05-04 15:49 39.68691 21.02707 38091 ft 446 kts 320°
2026-05-04 15:50 39.73405 20.97457 38091 ft 446 kts 320°
2026-05-04 15:50 39.78112 20.92206 38109 ft 446 kts 320°
2026-05-04 15:51 39.82821 20.86943 38109 ft 446 kts 320°
2026-05-04 15:51 39.87530 20.81669 38094 ft 446 kts 320°
2026-05-04 15:52 39.92240 20.76385 38091 ft 446 kts 320°
2026-05-04 15:52 39.96914 20.71132 38086 ft 447 kts 320°
2026-05-04 15:53 40.01624 20.65828 38077 ft 447 kts 320°
2026-05-04 15:53 40.06379 20.60595 38082 ft 447 kts 324°
2026-05-04 15:54 40.11635 20.56295 38083 ft 446 kts 331°
2026-05-04 15:54 40.17065 20.52319 38060 ft 447 kts 330°
2026-05-04 15:55 40.22488 20.48324 38064 ft 447 kts 330°
2026-05-04 15:55 40.27918 20.44331 38091 ft 447 kts 330°
2026-05-04 15:56 40.33309 20.40364 38089 ft 447 kts 330°
2026-05-04 15:56 40.38744 20.36356 38083 ft 448 kts 331°
2026-05-04 15:57 40.44185 20.32336 38084 ft 448 kts 331°
2026-05-04 15:57 40.49616 20.28318 38092 ft 448 kts 330°
2026-05-04 15:58 40.55008 20.24319 38098 ft 448 kts 330°
2026-05-04 15:58 40.60433 20.20288 38101 ft 448 kts 330°
2026-05-04 15:59 40.65870 20.16240 38088 ft 449 kts 331°
2026-05-04 15:59 40.71316 20.12181 38094 ft 449 kts 330°
2026-05-04 16:00 40.76757 20.08116 38109 ft 449 kts 330°
2026-05-04 16:00 40.82200 20.04041 38107 ft 450 kts 330°
2026-05-04 16:01 40.87615 19.99980 38093 ft 450 kts 330°
2026-05-04 16:01 40.93069 19.95881 38095 ft 451 kts 330°
2026-05-04 16:02 40.98524 19.91775 38102 ft 451 kts 330°
2026-05-04 16:03 41.06701 19.85603 38103 ft 451 kts 330°
2026-05-04 16:03 41.12164 19.81470 38115 ft 452 kts 330°
2026-05-04 16:04 41.17616 19.77339 38126 ft 451 kts 330°
2026-05-04 16:04 41.25761 19.71149 38136 ft 451 kts 330°
2026-05-04 16:05 41.31215 19.66995 38118 ft 451 kts 330°
2026-05-04 16:06 41.39395 19.60751 38110 ft 452 kts 330°
2026-05-04 16:07 41.50304 19.52393 38110 ft 452 kts 330°
2026-05-04 16:08 41.61180 19.44028 38107 ft 452 kts 330°
2026-05-04 16:09 41.74827 19.33487 38100 ft 453 kts 330°
2026-05-04 16:10 41.85410 19.24315 38093 ft 453 kts 326°
2026-05-04 16:11 41.95887 19.14946 38096 ft 454 kts 326°
2026-05-04 16:12 42.11597 19.00778 38113 ft 452 kts 326°
2026-05-04 16:13 42.22007 18.91343 38108 ft 452 kts 326°
2026-05-04 16:14 42.32447 18.81844 38106 ft 452 kts 326°
2026-05-04 16:16 42.45501 18.69908 38137 ft 453 kts 326°
2026-05-04 16:17 42.58519 18.57947 38137 ft 453 kts 326°
2026-05-04 16:18 42.68955 18.48313 38131 ft 453 kts 326°
2026-05-04 16:19 42.81984 18.36229 38123 ft 453 kts 325°
2026-05-04 16:20 42.94988 18.24105 38112 ft 453 kts 325°
2026-05-04 16:22 43.07965 18.11944 38096 ft 454 kts 325°
2026-05-04 16:23 43.23574 17.97230 38069 ft 454 kts 325°
2026-05-04 16:25 43.39151 17.82455 38077 ft 455 kts 325°
2026-05-04 16:26 43.57278 17.64941 38084 ft 454 kts 320°
2026-05-04 16:28 43.69519 17.51170 38078 ft 454 kts 321°
2026-05-04 16:29 43.86649 17.31791 38093 ft 455 kts 320°
2026-05-04 16:31 43.98910 17.17825 38084 ft 456 kts 320°
2026-05-04 16:32 44.13575 17.01019 38066 ft 457 kts 320°
2026-05-04 16:33 44.23360 16.89744 38083 ft 457 kts 320°
2026-05-04 16:34 44.30749 16.81279 38075 ft 458 kts 323°
2026-05-04 16:35 44.46449 16.66076 38084 ft 459 kts 324°
2026-05-04 16:36 44.54323 16.58416 38073 ft 459 kts 324°
2026-05-04 16:37 44.62188 16.50740 38062 ft 460 kts 324°
2026-05-04 16:38 44.71826 16.41298 38058 ft 460 kts 323°
2026-05-04 16:39 44.84954 16.28375 38043 ft 460 kts 323°
2026-05-04 16:40 44.95414 16.18024 38042 ft 461 kts 323°
2026-05-04 16:41 45.08541 16.04968 38040 ft 462 kts 323°
2026-05-04 16:43 45.21683 15.91822 38033 ft 463 kts 323°
2026-05-04 16:43 45.29564 15.83901 38038 ft 463 kts 323°
2026-05-04 16:45 45.45301 15.68002 38017 ft 464 kts 322°
2026-05-04 16:46 45.58444 15.54637 38018 ft 464 kts 322°
2026-05-04 16:47 45.68971 15.43876 38011 ft 464 kts 322°
2026-05-04 16:48 45.79461 15.33085 37993 ft 464 kts 322°
2026-05-04 16:49 45.89783 15.22067 38009 ft 464 kts 321°
2026-05-04 16:50 46.00158 15.10983 38008 ft 465 kts 321°
2026-05-04 16:51 46.07946 15.02630 38019 ft 465 kts 321°
2026-05-04 16:52 46.18307 14.91471 38030 ft 465 kts 321°
2026-05-04 16:53 46.26058 14.83088 38068 ft 464 kts 321°
2026-05-04 16:54 46.36394 14.71862 38042 ft 464 kts 321°
2026-05-04 16:55 46.51687 14.54764 37988 ft 462 kts 319°
2026-05-04 16:56 46.64183 14.40132 37981 ft 463 kts 319°
2026-05-04 16:57 46.71715 14.31303 37955 ft 464 kts 319°
2026-05-04 16:58 46.81780 14.19454 37966 ft 465 kts 319°
2026-05-04 17:00 46.96873 14.01575 37988 ft 467 kts 319°
2026-05-04 17:01 47.09462 13.86558 38011 ft 468 kts 319°
2026-05-04 17:02 47.19571 13.74430 38005 ft 469 kts 319°
2026-05-04 17:03 47.27146 13.65301 37968 ft 469 kts 318°
2026-05-04 17:03 47.34714 13.56146 37956 ft 469 kts 318°
2026-05-04 17:04 47.44796 13.43898 37929 ft 468 kts 318°
2026-05-04 17:05 47.49773 13.37833 37051 ft 462 kts 318°
2026-05-04 17:05 47.54749 13.31795 35330 ft 468 kts 319°
2026-05-04 17:06 47.59807 13.25672 33570 ft 470 kts 318°
2026-05-04 17:06 47.62334 13.22600 32628 ft 470 kts 318°
2026-05-04 17:07 47.67378 13.16457 30832 ft 468 kts 318°
2026-05-04 17:07 47.69079 13.14381 30258 ft 467 kts 318°
2026-05-04 17:07 47.72389 13.10335 29009 ft 465 kts 318°
2026-05-04 17:07 47.74884 13.07283 28059 ft 462 kts 318°
2026-05-04 17:08 47.77353 13.04258 27142 ft 459 kts 318°
2026-05-04 17:08 47.82195 12.98316 25328 ft 443 kts 318°
2026-05-04 17:08 47.84550 12.95420 24491 ft 435 kts 318°
2026-05-04 17:09 47.86863 12.92572 23690 ft 428 kts 318°
2026-05-04 17:09 47.89137 12.89770 22778 ft 421 kts 318°
2026-05-04 17:09 47.91381 12.87000 21917 ft 418 kts 318°
2026-05-04 17:10 47.95552 12.81065 20150 ft 411 kts 307°
2026-05-04 17:10 48.00045 12.70524 17553 ft 392 kts 298°
2026-05-04 17:11 48.01434 12.67056 16653 ft 387 kts 297°
2026-05-04 17:11 48.02806 12.63623 15757 ft 381 kts 297°
2026-05-04 17:11 48.05474 12.56912 14142 ft 369 kts 296°
2026-05-04 17:12 48.06774 12.53636 13404 ft 363 kts 296°
2026-05-04 17:12 48.09325 12.47272 11848 ft 351 kts 297°
2026-05-04 17:13 48.12980 12.38117 10905 ft 339 kts 297°
2026-05-04 17:14 48.18549 12.31542 10912 ft 352 kts 332°
2026-05-04 17:14 48.20761 12.29981 10911 ft 352 kts 331°
2026-05-04 17:14 48.25171 12.26797 10912 ft 351 kts 330°
2026-05-04 17:15 48.27169 12.24777 10916 ft 345 kts 311°
2026-05-04 17:15 48.28988 12.18457 10920 ft 329 kts 267°
2026-05-04 17:16 48.28345 12.11748 10926 ft 319 kts 257°
2026-05-04 17:16 48.27381 12.01935 10934 ft 320 kts 260°
2026-05-04 17:17 48.27125 11.98631 10926 ft 318 kts 261°
2026-05-04 17:17 48.26406 11.89020 10308 ft 291 kts 261°
2026-05-04 17:18 48.26182 11.86051 10068 ft 283 kts 261°
2026-05-04 17:18 48.25733 11.80229 9570 ft 279 kts 261°
2026-05-04 17:19 48.25284 11.74452 8940 ft 279 kts 261°
2026-05-04 17:19 48.24835 11.68675 7955 ft 276 kts 261°
2026-05-04 17:20 48.24386 11.62937 6981 ft 277 kts 262°
2026-05-04 17:20 48.23936 11.57215 6002 ft 277 kts 262°
2026-05-04 17:20 48.23710 11.54349 5501 ft 276 kts 262°
2026-05-04 17:21 48.23255 11.48628 4518 ft 275 kts 263°
2026-05-04 17:21 48.22805 11.42993 4021 ft 273 kts 263°
2026-05-04 17:22 48.22566 11.40164 3998 ft 274 kts 260°
2026-05-04 17:22 48.22350 11.37356 3998 ft 269 kts 275°
2026-05-04 17:23 48.25917 11.32109 4004 ft 258 kts
2026-05-04 17:23 48.27644 11.32656 3994 ft 251 kts 28°
2026-05-04 17:23 48.29940 11.36360 4013 ft 242 kts 54°
2026-05-04 17:24 48.30841 11.38498 4020 ft 243 kts 66°
2026-05-04 17:24 48.31750 11.45084 4001 ft 241 kts 84°
2026-05-04 17:25 48.31941 11.47575 4005 ft 237 kts 83°
2026-05-04 17:25 48.32302 11.52241 4002 ft 210 kts 83°
2026-05-04 17:26 48.32612 11.56258 3981 ft 178 kts 83°
2026-05-04 17:26 48.33035 11.61746 3274 ft 171 kts 83°
2026-05-04 17:27 48.33283 11.64956 2858 ft 145 kts 82°
2026-05-04 17:27 48.33513 11.67946 2488 ft 145 kts 82°
2026-05-04 17:28 48.33724 11.70960 2096 ft 145 kts 81°
2026-05-04 17:29 48.34098 11.75459 1508 ft 142 kts 83°
2026-05-04 17:29 48.34296 11.78052 1481 ft 28 kts 81°
2026-05-04 17:30 48.34500 11.78600 1475 ft 12 kts 53°
2026-05-04 17:31 48.34637 11.78735 1482 ft 11 kts 356°
2026-05-04 17:31 48.34708 11.78486 1478 ft 13 kts 264°
2026-05-04 17:32 48.34683 11.78153 1480 ft 15 kts 263°
2026-05-04 17:33 48.34705 11.77900 1480 ft 0 kts 343°
2026-05-04 17:34 48.34706 11.77899 1480 ft 2 kts 343°
2026-05-04 17:34 48.34759 11.77884 1477 ft 8 kts 354°
2026-05-04 17:35 48.34767 11.77883 1479 ft 0 kts 354°
2026-05-04 17:35 48.34868 11.77867 1478 ft 13 kts 354°
2026-05-04 17:35 48.34965 11.77849 1482 ft 15 kts 353°
2026-05-04 17:36 48.35049 11.77834 1487 ft 10 kts 353°
2026-05-04 17:36 48.35131 11.77819 1477 ft 11 kts 353°
2026-05-04 17:36 48.35199 11.77807 1480 ft 11 kts 353°
2026-05-04 17:36 48.35276 11.77794 1486 ft 10 kts 358°
2026-05-04 17:37 48.35330 11.77850 1476 ft 12 kts 70°
2026-05-04 17:37 48.35340 11.77937 1490 ft 5 kts 84°
2026-05-04 17:37 48.35344 11.77990 1477 ft 4 kts 83°
2026-05-04 17:37 48.35346 11.78018 1478 ft 4 kts 84°
2026-05-04 17:38 48.35349 11.78046 1481 ft 2 kts 84°
2026-05-04 17:38 48.35352 11.78087 1483 ft 5 kts 79°
2026-05-04 17:38 48.35364 11.78162 1485 ft 8 kts 83°
2026-05-04 17:38 48.35368 11.78221 1484 ft 4 kts 84°
2026-05-04 17:39 48.35372 11.78278 1479 ft 2 kts 83°
2026-05-04 17:39 48.35373 11.78289 1476 ft 1 kts 83°
2026-05-04 17:39 48.35373 11.78292 1476 ft 0 kts 83°